Regional Weather Roundup
Issued by NWS Sterling, VA

Home | Current Version | Previous Version | Text Only | Print | Product List | Glossary On
Versions: 1 2 3 4 5 6 7 8 9 10 11 12 13 14 15 16 17 18 19 20 21 22 23 24 25 26 27 28 29 30 31 32 33 34 35 36 37 38 39 40 41 42 43 44 45 46 47 48 49 50
000
ASUS41 KLWX 172011
RWRLWX

REGIONAL WEATHER ROUNDUP
NATIONAL WEATHER SERVICE BALTIMORE MD/WASHINGTON DC
300 PM EST WED JAN 17 2018

Note: "FAIR" indicates few or no clouds below 12,000 feet
with no significant weather and/or obstructions to visibility.
 TC=TEMPERATURE CELSIUS

 * =Non NWS site. Station does not report precipitation (e.g. rain,
    snow, etc.), thunder, or fog.

DCZ001-MDZ009-015-VAZ040>042-051-053>054-172100-
WASHINGTON METRO

CITY           SKY/WX    TMP DP  RH WIND       PRES   REMARKS
WASHINGTON NAT CLOUDY    27   9  46 NW15      30.34F WCI  15
DULLES         PTSUNNY   22   8  55 NW16      30.34F WCI   8
ANDREWS AFB    FAIR      25   9  51 NW17      30.30F WCI  11
FT BELVOIR     FAIR      25   7  46 N10G20    30.34F WCI  15
COLLEGE PARK*  FAIR      25   7  47 NW8       30.33S WCI  16
LEESBURG*      FAIR      25  10  54 N14G23    30.35R WCI  13
MANASSAS*      FAIR      24   9  52 N21       30.35F WCI   9
GAITHERSBURG*  FAIR      24   8  50 N8G20     30.30F WCI  15

$$

MDZ006>007-011-014-172100-
BALTIMORE METRO

CITY           SKY/WX    TMP DP  RH WIND       PRES   REMARKS
BWI AIRPORT    PTSUNNY   25   9  50 NW12      30.30F WCI  14
MD SCIENCE CTR   N/A     26   7  44 MISG      30.35R
MARTIN STATE   PTSUNNY   27  10  50 NW10G20   30.32F WCI  17
ANNAPOLIS      FAIR      28  11  48 NW13      30.30F WCI  17
FORT MEADE*    FAIR      27  10  50 N12G18    30.34F WCI  16

$$

MDZ012-015-019>023-172100-
MARYLAND EASTERN SHORE

CITY           SKY/WX    TMP DP  RH WIND       PRES   REMARKS
OCEAN CITY     LGT SNOW  28  24  85 NW10      30.24F FOG     WCI  19
SALISBURY      LGT SNOW  27  19  72 NW15      30.25F WCI  15
BAY BRIDGE AP* PTSUNNY   25   9  50 MISG      30.31F
CAMBRIDGE*     SUNNY     27  12  54 NW16G23   30.29S WCI  14
EASTON*        PTSUNNY   27  10  50 N15       30.32F WCI  15

$$

MDZ017>025-172100-
SOUTHERN MARYLAND

CITY           SKY/WX    TMP DP  RH WIND       PRES   REMARKS
PATUXENT RIVER CLOUDY    28  13  53 NW16      30.29  WCI  16
ST INIGOES     CLOUDY    28  12  51 NW8       30.28F WCI  20
LEONARDTOWN*   PTSUNNY   28  12  50 NW7       30.30F WCI  21

$$

MDZ003>005-172100-
NORTH CENTRAL MARYLAND

CITY           SKY/WX    TMP DP  RH WIND       PRES   REMARKS
FREDERICK*     SUNNY     25   3  39 N9        30.36F WCI  15
HAGERSTOWN APT FAIR      22   7  52 NW9       30.31F WCI  12
WESTMINSTER*   FAIR      21   9  58 N8        30.26F WCI  12

$$

MDZ501>502-172100-
WESTERN MARYLAND

CITY           SKY/WX    TMP DP  RH WIND       PRES   REMARKS
OAKLAND*       CLOUDY     5   3  92 NW7       30.18F WCI  -7
CUMBERLAND*    FAIR      27   5  39 NW14      30.39F WCI  15

$$

VAZ025>031-172100-
SHENANDOAH VALLEY

CITY           SKY/WX    TMP DP  RH WIND       PRES   REMARKS
WINCHESTER*    FAIR      23   5  46 NW10G22   30.33F WCI  12
FRONT ROYAL*   FAIR      25   5  42 N8        30.31F WCI  16
LURAY*         FAIR      28   9  43 N3        30.28F
NEW MARKET*    CLOUDY    26   2  34 N8G16     30.28F WCI  18
STAUNTON*      FAIR      25   8  49 NE12      30.27F WCI  14
WAYNESBORO*    CLOUDY    23   7  50 N10       30.24F WCI  13

$$

WVZ021-048>050-054>055-172100-
EASTERN WEST VIRGINIA PANHANDLE

CITY           SKY/WX    TMP DP  RH WIND       PRES   REMARKS
MARTINSBURG    FAIR      25   5  42 N14       30.32F WCI  13
PETERSBURG*    FAIR      24   6  45 N7        30.32F WCI  16

$$

VAZ036>039-050-172100-
CENTRAL FOOTHILLS

CITY           SKY/WX    TMP DP  RH WIND       PRES   REMARKS
CHARLOTTESVILL CLOUDY    30   8  39 N9        30.27F WCI  22
CULPEPER*      CLOUDY    26   3  36 N15       30.33F WCI  14
ORANGE*        CLOUDY    27   9  46 NE13G20   30.31F WCI  16
GORDONSVILLE*  CLOUDY    26   9  48 NE9       30.29F WCI  16
WARRENTON*     CLOUDY    26   3  37 N14G20    30.33S WCI  14

$$

VAZ055>057-172100-
NORTH AND CENTRAL PIEDMONT

CITY           SKY/WX    TMP DP  RH WIND       PRES   REMARKS
FREDERICKSBRG* FAIR      26  10  50 N9G18     30.32F WCI  17
STAFFORD*      CLOUDY    26   9  47 N17       30.36F WCI  14

$$

NCZ024-NYZ072-PAZ021-071-VAZ022-071-172100-
OTHER REGIONAL OBSERVATIONS

CITY           SKY/WX    TMP DP  RH WIND       PRES   REMARKS
NEW YORK CITY  LGT SNOW  33  28  81 NW8       30.19F WCI  26
PHILADELPHIA   CLOUDY    27  13  55 NW16      30.27F WCI  15
PITTSBURGH     FLURRIES  15   7  70 W9        30.38F WCI   3
ROANOKE        LGT SNOW  24  18  77 NW10      30.28F WCI  14
RICHMOND       LGT SNOW  25  19  78 N14       30.29F WCI  13
RALEIGH        HVY SNOW  32  31  96 NE13      30.18F VSB 1/4 WCI  22

$$

ANZ530>537-172100-
MARINE OBSERVATIONS

STATION/POSITION TIME  TEMP    WIND        PRES
                       AIR SEA DIR/SP/G
                 (UTC) (F)     (DEG/KT/KT) (MB)
THOMAS PT LIGHT  2000   26 31  340/ 14/ 15   N/A
BALT KEY BRIDGE  1948   24     330/ 16/ 19 1026.1F
COVE POINT       1948   26     360/ 14/ 23 1026.4F
LEWISETTA        1948   27 33  360/ 12/ 18 1025.8F
SOLOMONS ISLAND  1948   27 34  320/ 10/ 14 1025.5F
PINEY POINT      1942          360/ 18/ 21   N/A

$$




USA.gov is the U.S. government's official web portal to all federal, state and local government web resources and services.